Year,Month,Day,Hour,Minute,Value (Times are PST for temperature in C)
2011,10,23,00,00,12.20
2011,10,23,00,01,12.20
2011,10,23,00,02,12.20
2011,10,23,00,03,12.20
2011,10,23,00,04,12.20
2011,10,23,00,05,12.30
2011,10,23,00,06,12.30
2011,10,23,00,07,12.30
2011,10,23,00,08,12.30
2011,10,23,00,09,12.30
2011,10,23,00,10,12.30
2011,10,23,00,11,12.30
2011,10,23,00,12,12.40
2011,10,23,00,13,12.40
2011,10,23,00,14,12.40
2011,10,23,00,15,12.40
2011,10,23,00,16,12.40
2011,10,23,00,17,12.40
2011,10,23,00,18,12.40
2011,10,23,00,19,12.40
2011,10,23,00,20,12.40
2011,10,23,00,21,12.40
2011,10,23,00,22,12.40
2011,10,23,00,23,12.30
2011,10,23,00,24,12.30
2011,10,23,00,25,12.30
2011,10,23,00,26,12.30
2011,10,23,00,27,12.30
2011,10,23,00,28,12.30
2011,10,23,00,29,12.30
2011,10,23,00,30,12.20
2011,10,23,00,31,12.20
2011,10,23,00,32,12.20
2011,10,23,00,33,12.20
2011,10,23,00,34,12.20
2011,10,23,00,35,12.20
2011,10,23,00,36,12.20
2011,10,23,00,37,12.20
2011,10,23,00,38,12.20
2011,10,23,00,39,12.20
2011,10,23,00,40,12.20
2011,10,23,00,41,12.10
2011,10,23,00,42,12.10
2011,10,23,00,43,12.10
2011,10,23,00,44,12.10
2011,10,23,00,45,12.10
2011,10,23,00,46,12.10
2011,10,23,00,47,12.10
2011,10,23,00,48,12.10
2011,10,23,00,49,12.10
2011,10,23,00,50,12.20
2011,10,23,00,51,12.20
2011,10,23,00,52,12.20
2011,10,23,00,53,12.20
2011,10,23,00,54,12.20
2011,10,23,00,55,12.20
2011,10,23,00,56,12.20
2011,10,23,00,57,12.20
2011,10,23,00,58,12.20
2011,10,23,00,59,12.20
2011,10,23,01,00,12.10
2011,10,23,01,01,12.10
2011,10,23,01,02,12.10
2011,10,23,01,03,12.10
2011,10,23,01,04,12.10
2011,10,23,01,05,12.10
2011,10,23,01,06,12.00
2011,10,23,01,07,12.00
2011,10,23,01,08,12.00
2011,10,23,01,09,12.00
2011,10,23,01,10,12.00
2011,10,23,01,11,12.00
2011,10,23,01,12,12.00
2011,10,23,01,13,12.00
2011,10,23,01,14,12.00
2011,10,23,01,15,12.00
2011,10,23,01,16,12.00
2011,10,23,01,17,12.00
2011,10,23,01,18,12.00
2011,10,23,01,19,12.00
2011,10,23,01,20,12.00
2011,10,23,01,21,12.00
2011,10,23,01,22,11.90
2011,10,23,01,23,11.90
2011,10,23,01,24,11.90
2011,10,23,01,25,11.90
2011,10,23,01,26,11.90
2011,10,23,01,27,11.80
2011,10,23,01,28,11.80
2011,10,23,01,29,11.80
2011,10,23,01,30,11.80
2011,10,23,01,31,11.80
2011,10,23,01,32,11.80
2011,10,23,01,33,11.80
2011,10,23,01,34,11.80
2011,10,23,01,35,11.80
2011,10,23,01,36,11.80
2011,10,23,01,37,11.80
2011,10,23,01,38,11.80
2011,10,23,01,39,11.70
2011,10,23,01,40,11.70
2011,10,23,01,41,11.70
2011,10,23,01,42,11.70
2011,10,23,01,43,11.70
2011,10,23,01,44,11.60
2011,10,23,01,45,11.60
2011,10,23,01,46,11.60
2011,10,23,01,47,11.60
2011,10,23,01,48,11.50
2011,10,23,01,49,11.50
2011,10,23,01,50,11.50
2011,10,23,01,51,11.50
2011,10,23,01,52,11.40
2011,10,23,01,53,11.40
2011,10,23,01,54,11.40
2011,10,23,01,55,11.40
2011,10,23,01,56,11.30
2011,10,23,01,57,11.30
2011,10,23,01,58,11.20
2011,10,23,01,59,11.20
2011,10,23,02,00,11.10
2011,10,23,02,01,11.10
2011,10,23,02,02,11.10
2011,10,23,02,03,11.10
2011,10,23,02,04,11.00
2011,10,23,02,05,11.00
2011,10,23,02,06,11.00
2011,10,23,02,07,10.90
2011,10,23,02,08,10.90
2011,10,23,02,09,10.80
2011,10,23,02,10,10.80
2011,10,23,02,11,10.80
2011,10,23,02,12,10.80
2011,10,23,02,13,10.80
2011,10,23,02,14,10.80
2011,10,23,02,15,10.80
2011,10,23,02,16,10.80
2011,10,23,02,17,10.70
2011,10,23,02,18,10.70
2011,10,23,02,19,10.70
2011,10,23,02,20,10.70
2011,10,23,02,21,10.70
2011,10,23,02,22,10.70
2011,10,23,02,23,10.70
2011,10,23,02,24,10.70
2011,10,23,02,25,10.70
2011,10,23,02,26,10.70
2011,10,23,02,27,10.70
2011,10,23,02,28,10.70
2011,10,23,02,29,10.70
2011,10,23,02,30,10.70
2011,10,23,02,31,10.60
2011,10,23,02,32,10.60
2011,10,23,02,33,10.50
2011,10,23,02,34,10.50
2011,10,23,02,35,10.40
2011,10,23,02,36,10.40
2011,10,23,02,37,10.50
2011,10,23,02,38,10.50
2011,10,23,02,39,10.50
2011,10,23,02,40,10.50
2011,10,23,02,41,10.50
2011,10,23,02,42,10.50
2011,10,23,02,43,10.50
2011,10,23,02,44,10.50
2011,10,23,02,45,10.50
2011,10,23,02,46,10.60
2011,10,23,02,47,10.60
2011,10,23,02,48,10.60
2011,10,23,02,49,10.60
2011,10,23,02,50,10.60
2011,10,23,02,51,10.60
2011,10,23,02,52,10.60
2011,10,23,02,53,10.60
2011,10,23,02,54,10.60
2011,10,23,02,55,10.60
2011,10,23,02,56,10.50
2011,10,23,02,57,10.50
2011,10,23,02,58,10.50
2011,10,23,02,59,10.40
2011,10,23,03,00,10.40
2011,10,23,03,01,10.30
2011,10,23,03,02,10.30
2011,10,23,03,06,10.20
2011,10,23,03,07,10.20
2011,10,23,03,08,10.10
2011,10,23,03,09,10.10
2011,10,23,03,10,10.10
2011,10,23,03,11,10.10
2011,10,23,03,12,10.10
2011,10,23,03,13,10.10
2011,10,23,03,14,10.10
2011,10,23,03,15,10.10
2011,10,23,03,16,10.10
2011,10,23,03,17,10.20
2011,10,23,03,18,10.20
2011,10,23,03,19,10.20
2011,10,23,03,20,10.20
2011,10,23,03,21,10.20
2011,10,23,03,22,10.20
2011,10,23,03,23,10.30
2011,10,23,03,24,10.30
2011,10,23,03,25,10.30
2011,10,23,03,26,10.30
2011,10,23,03,27,10.30
2011,10,23,03,28,10.30
2011,10,23,03,29,10.30
2011,10,23,03,30,10.30
2011,10,23,03,31,10.30
2011,10,23,03,32,10.30
2011,10,23,03,33,10.40
2011,10,23,03,34,10.40
2011,10,23,03,35,10.40
2011,10,23,03,36,10.40
2011,10,23,03,37,10.40
2011,10,23,03,38,10.40
2011,10,23,03,39,10.40
2011,10,23,03,40,10.40
2011,10,23,03,41,10.40
2011,10,23,03,42,10.40
2011,10,23,03,43,10.40
2011,10,23,03,44,10.40
2011,10,23,03,45,10.40
2011,10,23,03,46,10.40
2011,10,23,03,47,10.40
2011,10,23,03,48,10.40
2011,10,23,03,49,10.40
2011,10,23,03,50,10.30
2011,10,23,03,51,10.30
2011,10,23,03,52,10.30
2011,10,23,03,53,10.30
2011,10,23,03,54,10.30
2011,10,23,03,55,10.30
2011,10,23,03,56,10.30
2011,10,23,03,57,10.30
2011,10,23,03,58,10.30
2011,10,23,03,59,10.30
2011,10,23,04,00,10.30
2011,10,23,04,01,10.30
2011,10,23,04,02,10.30
2011,10,23,04,03,10.30
2011,10,23,04,04,10.30
2011,10,23,04,05,10.30
2011,10,23,04,06,10.30
2011,10,23,04,07,10.30
2011,10,23,04,08,10.30
2011,10,23,04,09,10.30
2011,10,23,04,10,10.30
2011,10,23,04,11,10.30
2011,10,23,04,12,10.30
2011,10,23,04,13,10.30
2011,10,23,04,14,10.30
2011,10,23,04,15,10.20
2011,10,23,04,16,10.10
2011,10,23,04,17,10.00
2011,10,23,04,18,10.00
2011,10,23,04,19,9.90
2011,10,23,04,20,9.80
2011,10,23,04,21,9.80
2011,10,23,04,22,9.70
2011,10,23,04,23,9.60
2011,10,23,04,24,9.60
2011,10,23,04,25,9.50
2011,10,23,04,26,9.40
2011,10,23,04,27,9.30
2011,10,23,04,28,9.30
2011,10,23,04,29,9.20
2011,10,23,04,30,9.20
2011,10,23,04,31,9.20
2011,10,23,04,32,9.10
2011,10,23,04,33,9.10
2011,10,23,04,34,9.10
2011,10,23,04,35,9.10
2011,10,23,04,36,9.10
2011,10,23,04,37,9.10
2011,10,23,04,38,9.10
2011,10,23,04,39,9.10
2011,10,23,04,40,9.20
2011,10,23,04,41,9.20
2011,10,23,04,42,9.30
2011,10,23,04,43,9.30
2011,10,23,04,44,9.30
2011,10,23,04,45,9.40
2011,10,23,04,46,9.40
2011,10,23,04,47,9.40
2011,10,23,04,48,9.40
2011,10,23,04,49,9.30
2011,10,23,04,50,9.30
2011,10,23,04,51,9.30
2011,10,23,04,52,9.20
2011,10,23,04,53,9.20
2011,10,23,04,54,9.20
2011,10,23,04,55,9.20
2011,10,23,04,56,9.20
2011,10,23,04,57,9.20
2011,10,23,04,58,9.20
2011,10,23,04,59,9.20
2011,10,23,05,00,9.20
2011,10,23,05,01,9.20
2011,10,23,05,02,9.20
2011,10,23,05,03,9.10
2011,10,23,05,04,9.10
2011,10,23,05,05,9.10
2011,10,23,05,06,9.10
2011,10,23,05,07,9.10
2011,10,23,05,08,9.10
2011,10,23,05,09,9.10
2011,10,23,05,10,9.20
2011,10,23,05,11,9.20
2011,10,23,05,12,9.20
2011,10,23,05,13,9.20
2011,10,23,05,14,9.20
2011,10,23,05,15,9.20
2011,10,23,05,16,9.30
2011,10,23,05,17,9.30
2011,10,23,05,18,9.30
2011,10,23,05,19,9.30
2011,10,23,05,20,9.30
2011,10,23,05,21,9.30
2011,10,23,05,22,9.30
2011,10,23,05,23,9.30
2011,10,23,05,24,9.30
2011,10,23,05,25,9.30
2011,10,23,05,26,9.20
2011,10,23,05,27,9.20
2011,10,23,05,28,9.20
2011,10,23,05,29,9.20
2011,10,23,05,30,9.20
2011,10,23,05,31,9.10
2011,10,23,05,32,9.10
2011,10,23,05,33,9.00
2011,10,23,05,34,9.00
2011,10,23,05,35,8.90
2011,10,23,05,36,8.90
2011,10,23,05,37,8.90
2011,10,23,05,38,8.80
2011,10,23,05,39,8.80
2011,10,23,05,40,8.80
2011,10,23,05,41,8.80
2011,10,23,05,42,8.80
2011,10,23,05,43,8.80
2011,10,23,05,44,8.80
2011,10,23,05,45,8.80
2011,10,23,05,46,8.80
2011,10,23,05,47,8.80
2011,10,23,05,48,8.80
2011,10,23,05,49,8.70
2011,10,23,05,50,8.70
2011,10,23,05,51,8.70
2011,10,23,05,52,8.70
2011,10,23,05,53,8.60
2011,10,23,05,54,8.60
2011,10,23,05,55,8.60
2011,10,23,05,56,8.60
2011,10,23,05,57,8.60
2011,10,23,05,58,8.60
2011,10,23,05,59,8.50
2011,10,23,06,00,8.50
2011,10,23,06,01,8.40
2011,10,23,06,02,8.40
2011,10,23,06,03,8.30
2011,10,23,06,04,8.30
2011,10,23,06,05,8.20
2011,10,23,06,06,8.20
2011,10,23,06,07,8.10
2011,10,23,06,08,8.00
2011,10,23,06,09,7.90
2011,10,23,06,10,7.90
2011,10,23,06,11,7.90
2011,10,23,06,12,7.80
2011,10,23,06,13,7.80
2011,10,23,06,14,7.70
2011,10,23,06,15,7.70
2011,10,23,06,16,7.70
2011,10,23,06,17,7.70
2011,10,23,06,18,7.70
2011,10,23,06,19,7.70
2011,10,23,06,20,7.70
2011,10,23,06,21,7.60
2011,10,23,06,22,7.60
2011,10,23,06,23,7.60
2011,10,23,06,24,7.60
2011,10,23,06,25,7.60
2011,10,23,06,26,7.50
2011,10,23,06,27,7.50
2011,10,23,06,28,7.50
2011,10,23,06,29,7.50
2011,10,23,06,30,7.50
2011,10,23,06,31,7.50
2011,10,23,06,32,7.50
2011,10,23,06,33,7.40
2011,10,23,06,34,7.40
2011,10,23,06,35,7.40
2011,10,23,06,36,7.30
2011,10,23,06,37,7.30
2011,10,23,06,38,7.30
2011,10,23,06,39,7.30
2011,10,23,06,40,7.30
2011,10,23,06,41,7.30
2011,10,23,06,42,7.30
2011,10,23,06,43,7.30
2011,10,23,06,44,7.30
2011,10,23,06,45,7.30
2011,10,23,06,46,7.30
2011,10,23,06,47,7.30
2011,10,23,06,48,7.30
2011,10,23,06,49,7.30
2011,10,23,06,50,7.30
2011,10,23,06,51,7.30
2011,10,23,06,52,7.30
2011,10,23,06,53,7.40
2011,10,23,06,54,7.40
2011,10,23,06,55,7.40
2011,10,23,06,56,7.40
2011,10,23,06,57,7.40
2011,10,23,06,58,7.40
2011,10,23,06,59,7.40
2011,10,23,07,00,7.50
2011,10,23,07,01,7.60
2011,10,23,07,02,7.70
2011,10,23,07,03,7.80
2011,10,23,07,04,7.90
2011,10,23,07,05,7.90
2011,10,23,07,06,8.00
2011,10,23,07,07,8.00
2011,10,23,07,08,8.00
2011,10,23,07,09,8.10
2011,10,23,07,10,8.10
2011,10,23,07,11,8.20
2011,10,23,07,12,8.20
2011,10,23,07,13,8.40
2011,10,23,07,14,8.50
2011,10,23,07,15,8.60
2011,10,23,07,16,8.60
2011,10,23,07,17,8.50
2011,10,23,07,18,8.50
2011,10,23,07,19,8.50
2011,10,23,07,20,8.40
2011,10,23,07,21,8.40
2011,10,23,07,22,8.30
2011,10,23,07,23,8.30
2011,10,23,07,24,8.30
2011,10,23,07,25,8.20
2011,10,23,07,26,8.10
2011,10,23,07,27,8.10
2011,10,23,07,28,8.10
2011,10,23,07,29,8.00
2011,10,23,07,30,8.00
2011,10,23,07,31,7.90
2011,10,23,07,32,7.90
2011,10,23,07,33,7.80
2011,10,23,07,34,7.80
2011,10,23,07,35,7.70
2011,10,23,07,36,7.60
2011,10,23,07,37,7.60
2011,10,23,07,38,7.50
2011,10,23,07,39,7.50
2011,10,23,07,40,7.40
2011,10,23,07,41,7.40
2011,10,23,07,42,7.40
2011,10,23,07,43,7.40
2011,10,23,07,44,7.30
2011,10,23,07,45,7.30
2011,10,23,07,46,7.30
2011,10,23,07,47,7.30
2011,10,23,07,48,7.30
2011,10,23,07,49,7.20
2011,10,23,07,50,7.30
2011,10,23,07,51,7.30
2011,10,23,07,52,7.30
2011,10,23,07,53,7.40
2011,10,23,07,54,7.40
2011,10,23,07,55,7.40
2011,10,23,07,56,7.40
2011,10,23,07,57,7.40
2011,10,23,07,58,7.40
2011,10,23,07,59,7.40
2011,10,23,08,00,7.40
2011,10,23,08,01,7.40
2011,10,23,08,02,7.50
2011,10,23,08,03,7.50
2011,10,23,08,04,7.40
2011,10,23,08,05,7.50
2011,10,23,08,06,7.50
2011,10,23,08,07,7.50
2011,10,23,08,08,7.50
2011,10,23,08,09,7.50
2011,10,23,08,10,7.60
2011,10,23,08,11,7.60
2011,10,23,08,12,7.50
2011,10,23,08,13,7.50
2011,10,23,08,14,7.50
2011,10,23,08,15,7.50
2011,10,23,08,16,7.60
2011,10,23,08,17,7.60
2011,10,23,08,18,7.60
2011,10,23,08,19,7.60
2011,10,23,08,20,7.60
2011,10,23,08,21,7.60
2011,10,23,08,22,7.60
2011,10,23,08,23,7.60
2011,10,23,08,24,7.60
2011,10,23,08,25,7.60
2011,10,23,08,26,7.60
2011,10,23,08,27,7.60
2011,10,23,08,28,7.70
2011,10,23,08,29,7.70
2011,10,23,08,30,7.70
2011,10,23,08,31,7.70
2011,10,23,08,32,7.70
2011,10,23,08,33,7.70
2011,10,23,08,34,7.70
2011,10,23,08,35,7.70
2011,10,23,08,36,7.80
2011,10,23,08,37,7.80
2011,10,23,08,38,7.80
2011,10,23,08,39,7.80
2011,10,23,08,40,7.90
2011,10,23,08,41,7.90
2011,10,23,08,42,7.90
2011,10,23,08,43,8.00
2011,10,23,08,44,8.10
2011,10,23,08,45,8.10
2011,10,23,08,46,8.20
2011,10,23,08,47,8.30
2011,10,23,08,48,8.40
2011,10,23,08,49,8.40
2011,10,23,08,50,8.60
2011,10,23,08,51,8.70
2011,10,23,08,52,8.80
2011,10,23,08,53,8.90
2011,10,23,08,54,9.00
2011,10,23,08,55,9.10
2011,10,23,08,56,9.20
2011,10,23,08,57,9.20
2011,10,23,08,58,9.30
2011,10,23,08,59,9.30
2011,10,23,09,00,9.30
2011,10,23,09,01,9.40
2011,10,23,09,02,9.40
2011,10,23,09,03,9.40
2011,10,23,09,04,9.40
2011,10,23,09,05,9.50
2011,10,23,09,06,9.50
2011,10,23,09,07,9.50
2011,10,23,09,08,9.60
2011,10,23,09,09,9.60
2011,10,23,09,10,9.60
2011,10,23,09,11,9.70
2011,10,23,09,12,9.70
2011,10,23,09,13,9.70
2011,10,23,09,14,9.70
2011,10,23,09,15,9.80
2011,10,23,09,16,9.80
2011,10,23,09,17,9.90
2011,10,23,09,18,9.90
2011,10,23,09,19,9.90
2011,10,23,09,20,10.00
2011,10,23,09,21,10.00
2011,10,23,09,22,10.00
2011,10,23,09,23,10.00
2011,10,23,09,24,10.00
2011,10,23,09,25,9.90
2011,10,23,09,26,9.90
2011,10,23,09,27,9.90
2011,10,23,09,28,9.90
2011,10,23,09,29,9.90
2011,10,23,09,30,9.90
2011,10,23,09,31,9.90
2011,10,23,09,32,10.00
2011,10,23,09,33,10.00
2011,10,23,09,34,10.00
2011,10,23,09,35,10.10
2011,10,23,09,36,10.10
2011,10,23,09,37,10.20
2011,10,23,09,38,10.20
2011,10,23,09,39,10.20
2011,10,23,09,40,10.30
2011,10,23,09,41,10.30
2011,10,23,09,42,10.30
2011,10,23,09,43,10.30
2011,10,23,09,44,10.40
2011,10,23,09,45,10.50
2011,10,23,09,46,10.60
2011,10,23,09,47,10.70
2011,10,23,09,48,10.80
2011,10,23,09,49,10.90
2011,10,23,09,50,10.90
2011,10,23,09,51,11.00
2011,10,23,09,52,11.10
2011,10,23,09,53,11.20
2011,10,23,09,54,11.30
2011,10,23,09,55,11.40
2011,10,23,09,56,11.50
2011,10,23,09,57,11.60
2011,10,23,09,58,11.60
2011,10,23,09,59,11.70
2011,10,23,10,00,11.80
2011,10,23,10,01,11.90
2011,10,23,10,02,12.00
2011,10,23,10,03,12.10
2011,10,23,10,04,12.10
2011,10,23,10,05,12.10
2011,10,23,10,06,12.20
2011,10,23,10,07,12.10
2011,10,23,10,08,12.10
2011,10,23,10,09,12.00
2011,10,23,10,10,11.90
2011,10,23,10,11,11.90
2011,10,23,10,12,11.90
2011,10,23,10,13,11.80
2011,10,23,10,14,11.80
2011,10,23,10,15,11.80
2011,10,23,10,16,11.80
2011,10,23,10,17,11.80
2011,10,23,10,18,11.80
2011,10,23,10,19,11.80
2011,10,23,10,20,11.80
2011,10,23,10,21,11.80
2011,10,23,10,22,11.80
2011,10,23,10,23,11.80
2011,10,23,10,24,11.80
2011,10,23,10,25,11.80
2011,10,23,10,26,11.80
2011,10,23,10,27,11.80
2011,10,23,10,28,11.80
2011,10,23,10,29,11.70
2011,10,23,10,30,11.70
2011,10,23,10,31,11.70
2011,10,23,10,32,11.80
2011,10,23,10,33,11.80
2011,10,23,10,34,11.80
2011,10,23,10,35,11.80
2011,10,23,10,36,11.90
2011,10,23,10,37,11.90
2011,10,23,10,38,12.00
2011,10,23,10,39,12.00
2011,10,23,10,40,12.00
2011,10,23,10,41,12.10
2011,10,23,10,42,12.10
2011,10,23,10,43,12.10
2011,10,23,10,44,12.10
2011,10,23,10,45,12.10
2011,10,23,10,46,12.10
2011,10,23,10,47,12.10
2011,10,23,10,48,12.10
2011,10,23,10,49,12.10
2011,10,23,10,50,12.10
2011,10,23,10,51,12.10
2011,10,23,10,52,12.10
2011,10,23,10,53,12.10
2011,10,23,10,54,12.10
2011,10,23,10,55,12.20
2011,10,23,10,56,12.20
2011,10,23,10,57,12.20
2011,10,23,10,58,12.20
2011,10,23,10,59,12.20
2011,10,23,11,00,12.20
2011,10,23,11,01,12.20
2011,10,23,11,02,12.20
2011,10,23,11,03,12.30
2011,10,23,11,04,12.30
2011,10,23,11,05,12.30
2011,10,23,11,06,12.30
2011,10,23,11,07,12.40
2011,10,23,11,08,12.40
2011,10,23,11,09,12.50
2011,10,23,11,10,12.50
2011,10,23,11,11,12.60
2011,10,23,11,12,12.60
2011,10,23,11,13,12.70
2011,10,23,11,14,12.70
2011,10,23,11,15,12.80
2011,10,23,11,16,12.80
2011,10,23,11,17,12.80
2011,10,23,11,18,12.90
2011,10,23,11,19,12.90
2011,10,23,11,20,12.90
2011,10,23,11,21,12.90
2011,10,23,11,22,13.00
2011,10,23,11,23,12.90
2011,10,23,11,24,13.00
2011,10,23,11,25,13.00
2011,10,23,11,26,13.00
2011,10,23,11,27,13.00
2011,10,23,11,28,13.00
2011,10,23,11,29,13.00
2011,10,23,11,30,13.10
2011,10,23,11,31,13.10
2011,10,23,11,32,13.10
2011,10,23,11,33,13.10
2011,10,23,11,34,13.10
2011,10,23,11,35,13.20
2011,10,23,11,36,13.20
2011,10,23,11,37,13.20
2011,10,23,11,38,13.20
2011,10,23,11,39,13.20
2011,10,23,11,40,13.20
2011,10,23,11,41,13.20
2011,10,23,11,42,13.20
2011,10,23,11,43,13.20
2011,10,23,11,44,13.20
2011,10,23,11,45,13.20
2011,10,23,11,46,13.30
2011,10,23,11,47,13.30
2011,10,23,11,48,13.30
2011,10,23,11,49,13.30
2011,10,23,11,50,13.30
2011,10,23,11,51,13.30
2011,10,23,11,52,13.40
2011,10,23,11,53,13.40
2011,10,23,11,54,13.40
2011,10,23,11,55,13.50
2011,10,23,11,56,13.50
2011,10,23,11,57,13.50
2011,10,23,11,58,13.50
2011,10,23,11,59,13.50
2011,10,23,12,00,13.50
2011,10,23,12,01,13.50
2011,10,23,12,02,13.60
2011,10,23,12,03,13.60
2011,10,23,12,04,13.60
2011,10,23,12,05,13.60
2011,10,23,12,06,13.60
2011,10,23,12,07,13.60
2011,10,23,12,08,13.60
2011,10,23,12,09,13.70
2011,10,23,12,10,13.70
2011,10,23,12,11,13.70
2011,10,23,12,12,13.70
2011,10,23,12,13,13.70
2011,10,23,12,14,13.70
2011,10,23,12,15,13.70
2011,10,23,12,16,13.70
2011,10,23,12,17,13.70
2011,10,23,12,18,13.70
2011,10,23,12,19,13.70
2011,10,23,12,20,13.70
2011,10,23,12,21,13.80
2011,10,23,12,22,13.80
2011,10,23,12,23,13.80
2011,10,23,12,24,13.90
2011,10,23,12,25,13.90
2011,10,23,12,26,14.00
2011,10,23,12,27,14.00
2011,10,23,12,28,14.10
2011,10,23,12,29,14.10
2011,10,23,12,30,14.10
2011,10,23,12,31,14.20
2011,10,23,12,32,14.20
2011,10,23,12,33,14.10
2011,10,23,12,34,14.20
2011,10,23,12,35,14.20
2011,10,23,12,36,14.20
2011,10,23,12,37,14.20
2011,10,23,12,38,14.10
2011,10,23,12,39,14.10
2011,10,23,12,40,14.10
2011,10,23,12,41,14.10
2011,10,23,12,42,14.10
2011,10,23,12,43,14.20
2011,10,23,12,44,14.20
2011,10,23,12,45,14.30
2011,10,23,12,46,14.30
2011,10,23,12,47,14.30
2011,10,23,12,48,14.30
2011,10,23,12,49,14.30
2011,10,23,12,50,14.30
2011,10,23,12,51,14.30
2011,10,23,12,52,14.30
2011,10,23,12,53,14.30
2011,10,23,12,54,14.30
2011,10,23,12,55,14.20
2011,10,23,12,56,14.20
2011,10,23,12,57,14.20
2011,10,23,12,58,14.20
2011,10,23,12,59,14.20
2011,10,23,13,00,14.20
2011,10,23,13,01,14.30
2011,10,23,13,02,14.30
2011,10,23,13,03,14.40
2011,10,23,13,04,14.50
2011,10,23,13,05,14.50
2011,10,23,13,06,14.60
2011,10,23,13,07,14.70
2011,10,23,13,08,14.70
2011,10,23,13,09,14.80
2011,10,23,13,10,14.90
2011,10,23,13,11,14.80
2011,10,23,13,12,14.80
2011,10,23,13,13,14.80
2011,10,23,13,14,14.70
2011,10,23,13,15,14.70
2011,10,23,13,16,14.70
2011,10,23,13,17,14.70
2011,10,23,13,18,14.60
2011,10,23,13,19,14.60
2011,10,23,13,20,14.60
2011,10,23,13,21,14.50
2011,10,23,13,22,14.50
2011,10,23,13,23,14.40
2011,10,23,13,24,14.40
2011,10,23,13,25,14.40
2011,10,23,13,26,14.40
2011,10,23,13,27,14.40
2011,10,23,13,28,14.40
2011,10,23,13,29,14.40
2011,10,23,13,30,14.50
2011,10,23,13,31,14.60
2011,10,23,13,32,14.60
2011,10,23,13,33,14.70
2011,10,23,13,34,14.60
2011,10,23,13,35,14.60
2011,10,23,13,36,14.60
2011,10,23,13,37,14.60
2011,10,23,13,38,14.60
2011,10,23,13,39,14.60
2011,10,23,13,40,14.60
2011,10,23,13,41,14.60
2011,10,23,13,42,14.50
2011,10,23,13,43,14.50
2011,10,23,13,44,14.40
2011,10,23,13,45,14.40
2011,10,23,13,46,14.40
2011,10,23,13,47,14.30
2011,10,23,13,48,14.30
2011,10,23,13,49,14.30
2011,10,23,13,50,14.30
2011,10,23,13,51,14.30
2011,10,23,13,52,14.20
2011,10,23,13,53,14.10
2011,10,23,13,54,14.10
2011,10,23,13,55,14.10
2011,10,23,13,56,14.10
2011,10,23,13,57,14.10
2011,10,23,13,58,14.10
2011,10,23,13,59,14.10
2011,10,23,14,00,14.10
2011,10,23,14,01,14.00
2011,10,23,14,02,14.00
2011,10,23,14,03,13.90
2011,10,23,14,04,13.90
2011,10,23,14,05,13.90
2011,10,23,14,06,13.90
2011,10,23,14,07,13.90
2011,10,23,14,08,13.90
2011,10,23,14,09,13.90
2011,10,23,14,10,13.90
2011,10,23,14,11,14.00
2011,10,23,14,12,14.00
2011,10,23,14,13,14.00
2011,10,23,14,14,14.10
2011,10,23,14,15,14.10
2011,10,23,14,16,14.10
2011,10,23,14,17,14.20
2011,10,23,14,18,14.20
2011,10,23,14,19,14.20
2011,10,23,14,20,14.20
2011,10,23,14,21,14.10
2011,10,23,14,22,14.10
2011,10,23,14,23,14.10
2011,10,23,14,24,14.10
2011,10,23,14,25,14.00
2011,10,23,14,26,14.00
2011,10,23,14,27,14.00
2011,10,23,14,28,14.00
2011,10,23,14,29,14.00
2011,10,23,14,30,14.00
2011,10,23,14,31,14.00
2011,10,23,14,32,14.00
2011,10,23,14,33,14.00
2011,10,23,14,34,13.90
2011,10,23,14,35,13.90
2011,10,23,14,36,13.90
2011,10,23,14,37,14.00
2011,10,23,14,38,14.00
2011,10,23,14,39,14.10
2011,10,23,14,40,14.10
2011,10,23,14,41,14.10
2011,10,23,14,42,14.20
2011,10,23,14,43,14.20
2011,10,23,14,44,14.30
2011,10,23,14,45,14.30
2011,10,23,14,46,14.40
2011,10,23,14,47,14.40
2011,10,23,14,48,14.40
2011,10,23,14,49,14.30
2011,10,23,14,50,14.30
2011,10,23,14,51,14.30
2011,10,23,14,52,14.30
2011,10,23,14,53,14.30
2011,10,23,14,54,14.30
2011,10,23,14,55,14.30
2011,10,23,14,56,14.30
2011,10,23,14,57,14.30
2011,10,23,14,58,14.30
2011,10,23,14,59,14.30
2011,10,23,15,00,14.30
2011,10,23,15,01,14.30
2011,10,23,15,02,14.30
2011,10,23,15,03,14.40
2011,10,23,15,04,14.30
2011,10,23,15,05,14.30
2011,10,23,15,06,14.30
2011,10,23,15,07,14.30
2011,10,23,15,08,14.30
2011,10,23,15,09,14.30
2011,10,23,15,10,14.30
2011,10,23,15,11,14.30
2011,10,23,15,12,14.30
2011,10,23,15,13,14.20
2011,10,23,15,14,14.20
2011,10,23,15,15,14.10
2011,10,23,15,16,14.10
2011,10,23,15,17,14.10
2011,10,23,15,18,14.10
2011,10,23,15,19,14.00
2011,10,23,15,20,14.00
2011,10,23,15,21,13.90
2011,10,23,15,22,13.90
2011,10,23,15,23,13.90
2011,10,23,15,24,13.90
2011,10,23,15,25,13.90
2011,10,23,15,26,13.90
2011,10,23,15,27,13.90
2011,10,23,15,28,13.90
2011,10,23,15,29,13.90
2011,10,23,15,30,13.90
2011,10,23,15,31,14.00
2011,10,23,15,32,13.90
2011,10,23,15,33,13.90
2011,10,23,15,34,13.90
2011,10,23,15,35,13.90
2011,10,23,15,36,13.90
2011,10,23,15,37,14.00
2011,10,23,15,38,14.00
2011,10,23,15,39,14.10
2011,10,23,15,40,14.10
2011,10,23,15,41,14.10
2011,10,23,15,42,14.00
2011,10,23,15,43,14.00
2011,10,23,15,44,13.90
2011,10,23,15,45,13.90
2011,10,23,15,46,13.90
2011,10,23,15,47,13.90
2011,10,23,15,48,13.90
2011,10,23,15,49,13.90
2011,10,23,15,50,13.80
2011,10,23,15,51,13.80
2011,10,23,15,52,13.70
2011,10,23,15,53,13.70
2011,10,23,15,54,13.70
2011,10,23,15,55,13.70
2011,10,23,15,56,13.70
2011,10,23,15,57,13.70
2011,10,23,15,58,13.80
2011,10,23,15,59,13.80
2011,10,23,16,00,13.70
2011,10,23,16,01,13.70
2011,10,23,16,02,13.60
2011,10,23,16,03,13.60
2011,10,23,16,04,13.60
2011,10,23,16,05,13.60
2011,10,23,16,06,13.60
2011,10,23,16,07,13.60
2011,10,23,16,08,13.60
2011,10,23,16,09,13.60
2011,10,23,16,10,13.60
2011,10,23,16,11,13.60
2011,10,23,16,12,13.50
2011,10,23,16,13,13.50
2011,10,23,16,14,13.50
2011,10,23,16,15,13.50
2011,10,23,16,16,13.40
2011,10,23,16,17,13.40
2011,10,23,16,18,13.40
2011,10,23,16,19,13.30
2011,10,23,16,20,13.30
2011,10,23,16,21,13.20
2011,10,23,16,22,13.20
2011,10,23,16,23,13.20
2011,10,23,16,24,13.20
2011,10,23,16,25,13.20
2011,10,23,16,26,13.10
2011,10,23,16,27,13.10
2011,10,23,16,28,13.10
2011,10,23,16,29,13.10
2011,10,23,16,30,13.00
2011,10,23,16,31,13.00
2011,10,23,16,32,13.00
2011,10,23,16,33,13.00
2011,10,23,16,34,12.90
2011,10,23,16,35,13.00
2011,10,23,16,36,12.90
2011,10,23,16,37,12.90
2011,10,23,16,38,12.90
2011,10,23,16,39,12.90
2011,10,23,16,40,12.90
2011,10,23,16,41,12.90
2011,10,23,16,42,12.90
2011,10,23,16,43,12.90
2011,10,23,16,44,12.90
2011,10,23,16,45,12.90
2011,10,23,16,46,12.90
2011,10,23,16,47,12.90
2011,10,23,16,48,12.90
2011,10,23,16,49,13.00
2011,10,23,16,50,13.00
2011,10,23,16,51,13.00
2011,10,23,16,52,13.00
2011,10,23,16,53,13.00
2011,10,23,16,54,13.10
2011,10,23,16,55,13.10
2011,10,23,16,56,13.10
2011,10,23,16,57,13.10
2011,10,23,16,58,13.10
2011,10,23,16,59,13.00
2011,10,23,17,00,13.00
2011,10,23,17,01,13.00
2011,10,23,17,02,13.00
2011,10,23,17,03,12.90
2011,10,23,17,04,12.90
2011,10,23,17,05,12.90
2011,10,23,17,06,12.80
2011,10,23,17,07,12.80
2011,10,23,17,08,12.80
2011,10,23,17,09,12.70
2011,10,23,17,10,12.70
2011,10,23,17,11,12.70
2011,10,23,17,12,12.70
2011,10,23,17,13,12.60
2011,10,23,17,14,12.60
2011,10,23,17,15,12.60
2011,10,23,17,16,12.50
2011,10,23,17,17,12.50
2011,10,23,17,18,12.50
2011,10,23,17,19,12.40
2011,10,23,17,20,12.40
2011,10,23,17,21,12.40
2011,10,23,17,22,12.30
2011,10,23,17,23,12.30
2011,10,23,17,24,12.30
2011,10,23,17,25,12.30
2011,10,23,17,26,12.30
2011,10,23,17,27,12.20
2011,10,23,17,28,12.20
2011,10,23,17,29,12.20
2011,10,23,17,30,12.20
2011,10,23,17,31,12.20
2011,10,23,17,32,12.10
2011,10,23,17,33,12.10
2011,10,23,17,34,12.10
2011,10,23,17,35,12.10